TimeMDT,TemperatureF,Dew PointF,Humidity,Sea Level PressureIn,VisibilityMPH,Wind Direction,Wind SpeedMPH,Gust SpeedMPH,PrecipitationIn,Events,Conditions,WindDirDegrees,DateUTC
12:51 AM,27.0,14.0,58,29.88,-9999.0,NW,8.1,-,N/A,,Unknown,320,2013-04-09 06:51:00
1:51 AM,24.1,15.1,69,29.90,-9999.0,NNE,3.5,-,N/A,,Unknown,20,2013-04-09 07:51:00
2:51 AM,21.0,15.1,78,29.93,-9999.0,Calm,Calm,-,N/A,,Unknown,0,2013-04-09 08:51:00
3:51 AM,19.0,14.0,81,29.93,-9999.0,North,3.5,-,N/A,,Unknown,350,2013-04-09 09:51:00
4:51 AM,19.0,12.9,77,29.97,-9999.0,Calm,Calm,-,N/A,,Unknown,0,2013-04-09 10:51:00
5:51 AM,17.1,12.0,81,30.00,-9999.0,Calm,Calm,-,N/A,,Unknown,0,2013-04-09 11:51:00
6:51 AM,18.0,12.9,81,30.03,-9999.0,NW,3.5,-,N/A,,Unknown,320,2013-04-09 12:51:00
7:51 AM,18.0,12.0,78,30.06,-9999.0,WNW,3.5,-,N/A,,Unknown,290,2013-04-09 13:51:00
8:51 AM,23.0,14.0,68,30.06,-9999.0,NNW,4.6,-,N/A,,Unknown,340,2013-04-09 14:51:00
9:51 AM,27.0,14.0,58,30.06,-9999.0,NNW,4.6,-,N/A,,Unknown,340,2013-04-09 15:51:00
10:51 AM,30.9,12.0,46,30.06,-9999.0,WNW,5.8,-,N/A,,Unknown,300,2013-04-09 16:51:00
11:51 AM,35.1,12.9,40,30.04,-9999.0,WNW,10.4,-,N/A,,Unknown,300,2013-04-09 17:51:00
12:51 PM,37.9,12.0,35,30.02,-9999.0,Variable,4.6,-,N/A,,Unknown,0,2013-04-09 18:51:00
1:51 PM,42.1,12.0,29,30.00,-9999.0,NW,11.5,18.4,N/A,,Unknown,320,2013-04-09 19:51:00
2:51 PM,44.1,10.9,26,30.01,-9999.0,NNW,9.2,17.3,N/A,,Unknown,340,2013-04-09 20:51:00
3:51 PM,45.0,10.9,25,30.03,-9999.0,NW,8.1,19.6,N/A,,Unknown,320,2013-04-09 21:51:00
4:51 PM,44.1,9.0,24,30.02,-9999.0,WNW,10.4,-,N/A,,Unknown,300,2013-04-09 22:51:00
5:51 PM,45.0,10.0,24,30.04,-9999.0,NNW,9.2,16.1,N/A,,Unknown,330,2013-04-09 23:51:00
6:51 PM,43.0,7.0,23,30.05,-9999.0,NW,10.4,18.4,N/A,,Unknown,320,2013-04-10 00:51:00
7:51 PM,37.9,12.0,35,30.09,-9999.0,NW,5.8,-,N/A,,Unknown,320,2013-04-10 01:51:00
8:51 PM,30.0,12.9,49,30.12,-9999.0,Calm,Calm,-,N/A,,Unknown,0,2013-04-10 02:51:00
9:51 PM,27.0,15.1,61,30.15,-9999.0,Calm,Calm,-,N/A,,Unknown,0,2013-04-10 03:51:00
10:51 PM,25.0,16.0,69,30.17,-9999.0,SSE,3.5,-,N/A,,Unknown,160,2013-04-10 04:51:00
11:51 PM,23.0,16.0,74,30.16,-9999.0,Calm,Calm,-,N/A,,Unknown,0,2013-04-10 05:51:00